EW8803 Ciudad Real ES current weather conditions

sailwx.info

Wind from 262

Air temperature 10.0° C
Dewpoint 6.0° C

Last reported at 2020-Jan-17 19:00 UTC.
Time now 2020-Jan-17 19:39 UTC

Location: N 38°59' W 003°56'.
View on Google Maps.

See reports from other nearby stations

  
Tides and Currents Weather Stations Pressure Air Temp Water Temp Dewpoint Dewpoint Depression Visibility Wind Speed Wind Dir Waves Ship Positions
date/time (UTC)wind fromknots sea level pressurealtimeterstation pressurevisibilityair tempwater tempwave heightnotes
2020-Jan-17 19:00 262 10.0
2020-Jan-17 18:55 271 10.0
2020-Jan-17 18:50 265 0 gusting 3 10.0
2020-Jan-17 18:45 288 1 gusting 3 10.0
2020-Jan-17 18:40 271 1 gusting 3 10.0
2020-Jan-17 18:35 253 2 gusting 5 10.0
2020-Jan-17 18:30 257 1 gusting 4 10.0
2020-Jan-17 18:25 274 0 gusting 4 10.0
2020-Jan-17 18:20 254 1 gusting 4 10.0
2020-Jan-17 18:15 302 2 gusting 5 10.0
2020-Jan-17 18:10 292 1 gusting 5 10.0
2020-Jan-17 18:05 265 1 gusting 4 10.0
2020-Jan-17 18:00 312 1 gusting 5 10.0
2020-Jan-17 17:55 276 2 gusting 5 10.6
2020-Jan-17 17:50 278 0 gusting 3 10.6
2020-Jan-17 17:45 300 1 gusting 3 10.6
2020-Jan-17 17:40 278 1 gusting 4 11.1
2020-Jan-17 17:35 297 1 gusting 6 11.1
2020-Jan-17 17:30 281 1 gusting 6 11.1
2020-Jan-17 17:25 289 1 gusting 5 11.1
2020-Jan-17 17:20 283 1 gusting 5 11.1
2020-Jan-17 17:15 253 2 gusting 6 11.1
2020-Jan-17 17:10 262 2 gusting 6 11.7
2020-Jan-17 17:05 300 3 gusting 7 11.7
2020-Jan-17 17:00 250 4 gusting 7 11.7
2020-Jan-17 16:55 269 3 gusting 8 11.7
2020-Jan-17 16:51 252 3 gusting 8 12.2
2020-Jan-17 16:45 250 5 gusting 11 12.2
2020-Jan-17 16:40 269 6 gusting 11 12.2
2020-Jan-17 16:35 262 6 gusting 11 12.8
2020-Jan-17 16:30 239 4 gusting 8 12.8
2020-Jan-17 16:25 250 4 gusting 7 12.8
2020-Jan-17 16:20 276 3 gusting 6 12.8
2020-Jan-17 16:15 284 3 gusting 6 12.8
2020-Jan-17 16:10 290 3 gusting 6 12.8
2020-Jan-17 16:05 271 5 gusting 8 12.8
2020-Jan-17 16:00 264 3 gusting 8 12.8
2020-Jan-17 15:55 262 3 gusting 9 12.8
2020-Jan-17 15:50 247 4 gusting 9 12.8
2020-Jan-17 15:45 273 5 gusting 8 12.8
2020-Jan-17 15:40 304 4 gusting 8 12.8
2020-Jan-17 15:35 272 6 gusting 9 12.8
2020-Jan-17 15:30 277 4 gusting 8 12.8
2020-Jan-17 15:25 256 5 gusting 8 12.8
2020-Jan-17 15:20 247 4 gusting 13 12.8
2020-Jan-17 15:15 250 6 gusting 13 12.8
2020-Jan-17 15:10 263 4 gusting 11 12.8
2020-Jan-17 15:05 262 6 gusting 12 12.8
2020-Jan-17 15:00 262 8 gusting 12 12.8
2020-Jan-17 14:55 277 5 gusting 9 12.8
2020-Jan-17 14:50 241 6 gusting 9 12.8
2020-Jan-17 14:45 276 6 gusting 9 12.8
2020-Jan-17 14:40 238 4 gusting 7 12.8
2020-Jan-17 14:35 270 5 gusting 6 12.8
2020-Jan-17 14:30 273 4 gusting 7 12.8
2020-Jan-17 14:20 259 3 gusting 10 12.8
2020-Jan-17 14:15 253 6 gusting 11 12.2
2020-Jan-17 14:10 257 8 gusting 11 12.8
2020-Jan-17 14:05 255 6 gusting 11 12.8
2020-Jan-17 14:00 263 6 gusting 13 12.8
2020-Jan-17 13:55 255 7 gusting 13 12.8
2020-Jan-17 13:50 257 6 gusting 14 12.8
2020-Jan-17 13:40 252 6 gusting 10 12.8
2020-Jan-17 13:35 272 6 gusting 10 12.8
2020-Jan-17 13:30 229 4 gusting 12 12.8
2020-Jan-17 13:25 247 7 gusting 12 12.8
2020-Jan-17 13:20 266 6 gusting 13 12.8
2020-Jan-17 13:15 228 9 gusting 14 12.8
2020-Jan-17 13:10 276 8 gusting 14 12.8
2020-Jan-17 13:05 269 7 gusting 13 12.2
2020-Jan-17 12:55 288 7 gusting 14 12.2
2020-Jan-17 12:50 274 5 gusting 13 12.2
2020-Jan-17 12:45 252 7 gusting 13 12.2
2020-Jan-17 12:40 260 4 gusting 12 12.8
2020-Jan-17 12:35 262 7 gusting 12 12.2
2020-Jan-17 12:30 225 5 gusting 13 12.8
2020-Jan-17 12:25 302 6 gusting 13 12.2
2020-Jan-17 12:20 279 6 gusting 11 12.2
2020-Jan-17 12:15 262 7 gusting 11 12.2
2020-Jan-17 12:10 231 3 gusting 9 12.2
2020-Jan-17 12:05 277 5 gusting 9 12.2
2020-Jan-17 12:00 274 5 gusting 12 12.2
2020-Jan-17 11:55 240 6 gusting 12 12.2
2020-Jan-17 11:50 250 5 gusting 13 11.7
2020-Jan-17 11:45 274 7 gusting 13 11.7
2020-Jan-17 11:40 248 7 gusting 12 11.7
2020-Jan-17 11:35 265 6 gusting 14 11.7
2020-Jan-17 11:30 269 7 gusting 14 11.7
2020-Jan-17 11:25 292 6 gusting 12 11.7
2020-Jan-17 11:20 256 6 gusting 12 11.1
2020-Jan-17 11:16 280 6 gusting 12 11.1
2020-Jan-17 11:11 264 8 gusting 12 11.1
2020-Jan-17 11:05 314 4 gusting 7 11.7
2020-Jan-17 10:56 269 5 gusting 9 11.7
2020-Jan-17 10:50 285 6 gusting 12 11.1
2020-Jan-17 10:45 275 5 gusting 13 11.1
2020-Jan-17 10:40 283 6 gusting 13 11.1
2020-Jan-17 10:35 231 6 gusting 11 11.1
2020-Jan-17 10:30 218 6 gusting 11 11.1
2020-Jan-17 10:25 266 5 gusting 11 10.6
2020-Jan-17 10:21 276 5 gusting 12 10.6
2020-Jan-17 10:16 260 8 gusting 12 10.0
2020-Jan-17 10:11 217 6 gusting 13 10.0
2020-Jan-17 10:05 254 6 gusting 12 10.6
2020-Jan-17 10:00 269 6 gusting 10 10.6
2020-Jan-17 09:55 269 5 gusting 8 10.6
2020-Jan-17 09:50 254 5 gusting 8 10.0
2020-Jan-17 09:45 231 2 gusting 6 10.0
2020-Jan-17 09:40 304 3 gusting 6 10.0
2020-Jan-17 09:35 288 2 gusting 6 9.4
2020-Jan-17 09:30 228 2 gusting 5 9.4
2020-Jan-17 09:25 260 2 gusting 4 9.4
2020-Jan-17 09:20 257 2 gusting 4 8.9
2020-Jan-17 09:15 322 0 gusting 4 8.9
2020-Jan-17 09:10 274 0 gusting 4 8.9
2020-Jan-17 09:05 297 0 gusting 2 8.9
2020-Jan-17 09:00 275 0 gusting 5 8.9
2020-Jan-17 08:55 309 1 gusting 5 8.9
2020-Jan-17 08:50 266 2 gusting 4 8.9
2020-Jan-17 08:45 260 1 gusting 3 8.9
2020-Jan-17 08:40 296 0 gusting 3 8.9
2020-Jan-17 08:35 235 1 gusting 4 8.9
2020-Jan-17 08:30 269 1 gusting 4 8.9
2020-Jan-17 08:25 266 2 gusting 4 8.9
2020-Jan-17 08:20 200 0 gusting 3 8.9
2020-Jan-17 08:10 259 2 gusting 3 8.9
2020-Jan-17 08:05 248 0 gusting 2 8.3
2020-Jan-17 08:00 211 0 gusting 2 8.3
2020-Jan-17 07:55 184 0 gusting 1 8.3
2020-Jan-17 07:50 225 0 gusting 1 8.9
2020-Jan-17 07:45 250 8.9
2020-Jan-17 07:40 262 0 gusting 2 8.9
2020-Jan-17 07:35 264 1 gusting 2 8.9
2020-Jan-17 07:30 264 8.3
2020-Jan-17 07:25 276 8.3
2020-Jan-17 07:20 256 8.3
2020-Jan-17 07:15 278 8.3
2020-Jan-17 07:10 279 8.3
2020-Jan-17 07:05 240 8.3
2020-Jan-17 07:00 291 8.3
2020-Jan-17 06:55 281 8.3
2020-Jan-17 06:50 281 8.3
2020-Jan-17 06:45 288 8.9
2020-Jan-17 06:40 274 0 gusting 1 8.9
2020-Jan-17 06:35 318 8.9
2020-Jan-17 06:25 260 1 gusting 3 8.9
2020-Jan-17 06:20 232 1 gusting 2 8.9
2020-Jan-17 06:15 203 8.9
2020-Jan-17 06:10 262 0 gusting 1 8.9
2020-Jan-17 06:00 286 1 gusting 2 8.9
2020-Jan-17 05:55 277 0 gusting 1 8.9
2020-Jan-17 05:50 293 0 gusting 2 8.9
2020-Jan-17 05:45 264 8.9
2020-Jan-17 05:40 229 1 gusting 3 8.9
2020-Jan-17 05:35 224 0 gusting 3 8.9
2020-Jan-17 05:30 237 1 gusting 2 9.4
2020-Jan-17 05:25 271 0 gusting 3 9.4
2020-Jan-17 05:20 259 1 gusting 3 9.4
2020-Jan-17 05:15 254 0 gusting 4 9.4
2020-Jan-17 05:10 246 1 gusting 5 9.4
2020-Jan-17 05:05 255 1 gusting 5 9.4
2020-Jan-17 05:00 221 2 gusting 5 9.4
2020-Jan-17 04:55 233 3 gusting 5 9.4
2020-Jan-17 04:50 250 4 gusting 6 9.4
2020-Jan-17 04:45 246 3 gusting 5 9.4
2020-Jan-17 04:40 248 2 gusting 4 9.4
2020-Jan-17 04:35 240 1 gusting 4 9.4
2020-Jan-17 04:30 245 1 gusting 4 9.4
2020-Jan-17 04:25 203 2 gusting 6 9.4
2020-Jan-17 04:20 258 2 gusting 6 9.4
2020-Jan-17 04:15 225 1 gusting 5 9.4
2020-Jan-17 04:10 214 1 gusting 6 9.4
2020-Jan-17 04:05 274 3 gusting 7 9.4
2020-Jan-17 04:00 217 4 gusting 7 9.4
2020-Jan-17 03:55 226 3 gusting 6 9.4
2020-Jan-17 03:50 203 2 gusting 7 9.4
2020-Jan-17 03:45 248 4 gusting 8 9.4
2020-Jan-17 03:40 252 6 gusting 8 10.0
2020-Jan-17 03:35 249 3 gusting 10 10.0
2020-Jan-17 03:30 256 6 gusting 13 10.0
2020-Jan-17 03:25 228 6 gusting 13 10.0
2020-Jan-17 03:20 255 6 gusting 9 10.0
2020-Jan-17 03:15 250 3 gusting 7 9.4
2020-Jan-17 03:10 264 2 gusting 5 9.4
2020-Jan-17 03:05 214 2 gusting 5 8.9
2020-Jan-17 03:00 183 2 gusting 6 8.9
2020-Jan-17 02:55 197 1 gusting 3 8.9
2020-Jan-17 02:50 236 0 gusting 1 8.9
2020-Jan-17 02:45 210 8.9
2020-Jan-17 02:40 243 0 gusting 1 8.9
2020-Jan-17 02:35 224 8.3
2020-Jan-17 02:30 167 0 gusting 4 8.3
2020-Jan-17 02:25 186 1 gusting 4 8.3
2020-Jan-17 02:20 181 2 gusting 4 8.3
2020-Jan-17 02:10 174 8.3
2020-Jan-17 02:00 106 8.3
2020-Jan-17 01:55 201 8.9
2020-Jan-17 01:50 219 8.9
2020-Jan-17 01:45 201 8.3
2020-Jan-17 01:40 065 8.3
2020-Jan-17 01:35 006 8.9
2020-Jan-17 01:25 257 1 gusting 5 8.3
2020-Jan-17 01:20 214 3 gusting 5 8.3
2020-Jan-17 01:15 246 3 gusting 6 8.3
2020-Jan-17 01:10 259 0 gusting 4 8.3
2020-Jan-17 01:05 235 2 gusting 4 8.3
2020-Jan-17 01:00 219 8.3
2020-Jan-17 00:55 151 8.3
2020-Jan-17 00:50 087 8.3
2020-Jan-17 00:45 047 8.3
2020-Jan-17 00:40 076 0 gusting 1 8.3
2020-Jan-17 00:35 068 7.8
2020-Jan-17 00:30 238 7.8
2020-Jan-17 00:25 200 8.3
2020-Jan-17 00:20 229 0 gusting 3 8.3
2020-Jan-17 00:15 205 1 gusting 2 8.3
2020-Jan-17 00:10 224 8.3
2020-Jan-17 00:05 293 8.3
2020-Jan-17 00:00 260 8.3
2020-Jan-16 23:55 260 8.3
2020-Jan-16 23:50 264 8.3
2020-Jan-16 23:45 246 8.3
2020-Jan-16 23:40 222 8.9
2020-Jan-16 23:35 270 8.9
2020-Jan-16 23:30 271 8.9
2020-Jan-16 23:25 293 0 gusting 1 8.3
2020-Jan-16 23:20 309 0 gusting 3 8.9
2020-Jan-16 23:15 196 0 gusting 3 8.9
2020-Jan-16 23:10 264 8.9
2020-Jan-16 23:05 300 8.9
2020-Jan-16 23:01 013 8.9
2020-Jan-16 22:55 270 8.9
2020-Jan-16 22:50 262 3 gusting 5 8.9
2020-Jan-16 22:45 269 3 gusting 4 8.9
2020-Jan-16 22:40 243 2 gusting 4 8.9
2020-Jan-16 22:35 227 2 gusting 6 8.9
2020-Jan-16 22:30 252 2 gusting 7 8.9
2020-Jan-16 22:25 238 3 gusting 6 8.9
2020-Jan-16 22:20 219 2 gusting 6 8.9
2020-Jan-16 22:15 224 2 gusting 5 8.9
2020-Jan-16 22:05 196 0 gusting 4 8.9
2020-Jan-16 22:00 232 1 gusting 6 8.9
2020-Jan-16 21:55 195 2 gusting 6 8.9
2020-Jan-16 21:50 197 2 gusting 6 8.9
2020-Jan-16 21:45 246 3 gusting 6 8.9
2020-Jan-16 21:40 186 1 gusting 5 9.4
2020-Jan-16 21:35 226 2 gusting 5 9.4
2020-Jan-16 21:30 255 2 gusting 4 9.4
2020-Jan-16 21:20 257 2 gusting 4 9.4
2020-Jan-16 21:15 257 0 gusting 6 9.4
2020-Jan-16 21:10 184 3 gusting 6 9.4
2020-Jan-16 21:05 207 2 gusting 6 9.4
2020-Jan-16 21:00 232 2 gusting 6 10.0
2020-Jan-16 20:55 188 4 gusting 6 10.0
2020-Jan-16 20:50 226 4 gusting 6 10.0
2020-Jan-16 20:45 188 4 gusting 7 10.0
2020-Jan-16 20:40 203 5 gusting 7 10.0
2020-Jan-16 20:35 203 4 gusting 6 10.0
2020-Jan-16 20:30 227 3 gusting 6 10.0
2020-Jan-16 20:25 217 4 gusting 6 10.0
2020-Jan-16 20:20 210 4 gusting 6 10.0
2020-Jan-16 20:15 229 3 gusting 6 10.0
2020-Jan-16 20:10 205 4 gusting 5 10.0
2020-Jan-16 20:05 208 3 gusting 6 10.0
2020-Jan-16 20:00 228 4 gusting 6 10.0
2020-Jan-16 19:55 201 3 gusting 5 10.0
2020-Jan-16 19:50 136 2 gusting 5 10.6
2020-Jan-16 19:45 209 2 gusting 5 10.6
2020-Jan-16 19:40 252 2 gusting 5 10.6
2020-Jan-16 19:35 231 3 gusting 6 10.6
2020-Jan-16 19:25 204 4 gusting 7 11.1
2020-Jan-16 19:20 234 4 gusting 7 11.1
2020-Jan-16 19:15 223 4 gusting 6 11.1
2020-Jan-16 19:10 167 3 gusting 6 11.1
2020-Jan-16 19:05 210 3 gusting 7 11.1
2020-Jan-16 19:00 221 3 gusting 7 11.1
2020-Jan-16 18:55 233 3 gusting 6 11.1
2020-Jan-16 18:50 231 3 gusting 6 11.1
2020-Jan-16 18:45 208 2 gusting 6 11.1
2020-Jan-16 18:40 222 2 gusting 6 11.7
2020-Jan-16 18:35 271 2 gusting 5 11.7
2020-Jan-16 18:30 185 3 gusting 6 11.7
2020-Jan-16 18:25 195 4 gusting 6 11.7
2020-Jan-16 18:20 226 5 gusting 6 11.7
2020-Jan-16 18:15 226 4 gusting 6 11.7
2020-Jan-16 18:05 249 3 gusting 8 12.2
2020-Jan-16 18:00 243 4 gusting 8 12.2
2020-Jan-16 17:55 231 3 gusting 6 12.2
2020-Jan-16 17:50 221 4 gusting 6 12.2
2020-Jan-16 17:45 231 4 gusting 8 12.8
2020-Jan-16 17:40 228 5 gusting 8 12.8
2020-Jan-16 17:35 228 5 gusting 6 12.8
2020-Jan-16 17:30 234 4 gusting 6 12.8
2020-Jan-16 17:20 240 3 gusting 7 13.3
2020-Jan-16 17:15 228 3 gusting 6 13.3
2020-Jan-16 17:10 226 5 gusting 7 13.9
2020-Jan-16 17:05 243 4 gusting 6 13.9
2020-Jan-16 17:00 238 4 gusting 7 13.9
2020-Jan-16 16:55 225 5 gusting 7 14.4
2020-Jan-16 16:50 233 4 gusting 7 14.4
2020-Jan-16 16:45 216 4 gusting 8 14.4
2020-Jan-16 16:40 236 5 gusting 8 15.0
2020-Jan-16 16:35 226 5 gusting 8 15.0
2020-Jan-16 16:30 236 6 gusting 9 15.0
2020-Jan-16 16:25 238 3 gusting 10 15.0
2020-Jan-16 16:20 255 6 gusting 10 15.0
2020-Jan-16 16:15 269 5 gusting 8 15.6
2020-Jan-16 16:10 245 6 gusting 9 15.6
2020-Jan-16 16:05 211 6 gusting 10 15.6
2020-Jan-16 16:00 236 6 gusting 11 15.6
2020-Jan-16 15:55 266 6 gusting 11 15.6
2020-Jan-16 15:50 264 6 gusting 10 15.6
2020-Jan-16 15:45 253 8 gusting 10 15.6
2020-Jan-16 15:40 240 6 gusting 10 15.6
2020-Jan-16 15:35 248 4 gusting 13 15.6
2020-Jan-16 15:30 240 8 gusting 13 15.6
2020-Jan-16 15:25 247 6 gusting 9 15.6
2020-Jan-16 15:20 186 5 gusting 8 15.6
2020-Jan-16 15:15 228 6 gusting 10 15.6
2020-Jan-16 15:10 211 7 gusting 10 15.6
2020-Jan-16 15:05 259 6 gusting 10 15.6
2020-Jan-16 15:00 236 6 gusting 10 15.6
2020-Jan-16 14:55 240 6 gusting 13 15.6
2020-Jan-16 14:50 256 6 gusting 13 15.6
2020-Jan-16 14:45 266 5 gusting 11 15.6
2020-Jan-16 14:40 253 7 gusting 11 15.6
2020-Jan-16 14:35 224 7 gusting 10 15.6
2020-Jan-16 14:30 231 6 gusting 9 15.6
2020-Jan-16 14:25 278 4 gusting 8 15.6
2020-Jan-16 14:20 250 3 gusting 9 15.6
2020-Jan-16 14:15 253 6 gusting 12 15.6
2020-Jan-16 14:10 231 5 gusting 12 15.6
2020-Jan-16 14:05 248 6 gusting 9 15.6
2020-Jan-16 14:00 225 5 gusting 10 15.6
2020-Jan-16 13:55 236 6 gusting 8 15.0
2020-Jan-16 13:50 267 5 gusting 12 15.0
2020-Jan-16 13:45 236 7 gusting 13 15.6
2020-Jan-16 13:40 203 6 gusting 11 15.0
2020-Jan-16 13:35 259 8 gusting 11 15.0
2020-Jan-16 13:30 253 4 gusting 7 15.0
2020-Jan-16 13:25 260 3 gusting 6 15.0
2020-Jan-16 13:20 238 4 gusting 6 15.0
2020-Jan-16 13:15 222 3 gusting 7 15.0
2020-Jan-16 13:10 203 3 gusting 9 14.4
2020-Jan-16 13:05 187 6 gusting 9 14.4
2020-Jan-16 13:00 208 4 gusting 7 14.4
2020-Jan-16 12:55 260 4 gusting 6 14.4
2020-Jan-16 12:50 223 4 gusting 8 13.9
2020-Jan-16 12:45 212 5 gusting 8 13.9
2020-Jan-16 12:40 259 4 gusting 8 13.9
2020-Jan-16 12:35 242 4 gusting 6 13.9
2020-Jan-16 12:30 291 4 gusting 8 13.9
2020-Jan-16 12:25 250 5 gusting 8 13.9
2020-Jan-16 12:20 267 3 gusting 8 13.9
2020-Jan-16 12:15 236 6 gusting 8 13.9
2020-Jan-16 12:10 179 2 gusting 6 13.9
2020-Jan-16 12:05 243 2 gusting 6 13.9
2020-Jan-16 12:00 255 13.3
2020-Jan-16 11:55 293 1 gusting 3 13.3
2020-Jan-16 11:50 257 0 gusting 4 13.3
2020-Jan-16 11:45 262 3 gusting 4 12.8
2020-Jan-16 11:40 271 1 gusting 3 13.3
2020-Jan-16 11:35 246 1 gusting 2 13.3
2020-Jan-16 11:30 252 13.3
2020-Jan-16 11:26 197 0 gusting 2 13.9
2020-Jan-16 11:20 133 13.9
2020-Jan-16 11:15 150 13.3
2020-Jan-16 11:10 218 13.3
2020-Jan-16 11:05 207 0 gusting 2 12.8
2020-Jan-16 10:55 136 0 gusting 2 12.2
2020-Jan-16 10:50 190 0 gusting 1 12.2
2020-Jan-16 10:45 191 11.7
2020-Jan-16 10:40 141 0 gusting 2 11.7
2020-Jan-16 10:35 216 0 gusting 2 11.1
2020-Jan-16 10:30 183 0 gusting 1 11.7
2020-Jan-16 10:25 201 0 gusting 1 11.1
2020-Jan-16 10:21 124 11.1
2020-Jan-16 10:16 110 0 gusting 1 11.1
2020-Jan-16 10:10 207 0 gusting 2 10.6
2020-Jan-16 10:05 129 0 gusting 2 10.6
2020-Jan-16 10:01 165 0 gusting 2 10.0
2020-Jan-16 09:55 115 0 gusting 2 10.0
2020-Jan-16 09:50 225 9.4
2020-Jan-16 09:45 115 1 gusting 3 9.4
2020-Jan-16 09:40 121 1 gusting 3 9.4
2020-Jan-16 09:35 185 1 gusting 3 9.4
2020-Jan-16 09:30 129 0 gusting 2 8.9
2020-Jan-16 09:25 129 8.3
2020-Jan-16 09:20 097 0 gusting 1 7.8
2020-Jan-16 09:15 115 0 gusting 1 7.8
2020-Jan-16 09:10 108 0 gusting 1 7.8
2020-Jan-16 09:05 113 0 gusting 1 7.8
2020-Jan-16 08:55 114 8.3
2020-Jan-16 08:50 118 8.3
2020-Jan-16 08:40 118 7.8
2020-Jan-16 08:35 138 7.2
2020-Jan-16 08:30 143 6.7
2020-Jan-16 08:25 108 0 gusting 1 6.1
2020-Jan-16 08:15 127 1 gusting 2 6.1
2020-Jan-16 08:10 148 0 gusting 1 6.1
2020-Jan-16 08:05 114 0 gusting 1 5.6
2020-Jan-16 08:00 109 0 gusting 1 5.6
2020-Jan-16 07:55 115 0 gusting 1 5.6
2020-Jan-16 07:50 138 5.6
2020-Jan-16 07:45 116 0 gusting 1 5.6
2020-Jan-16 07:40 110 5.6
2020-Jan-16 07:30 103 5.6
2020-Jan-16 07:25 103 5.6
2020-Jan-16 07:20 105 1 gusting 1 5.6
2020-Jan-16 07:15 115 6.1
2020-Jan-16 07:10 119 6.1
2020-Jan-16 07:05 201 6.1
2020-Jan-16 07:00 222 1 gusting 5 6.1
2020-Jan-16 06:55 127 2 gusting 5 6.1
2020-Jan-16 06:50 211 1 gusting 4 6.1
2020-Jan-16 06:45 200 0 gusting 3 6.1
2020-Jan-16 06:40 165 1 gusting 4 6.1
2020-Jan-16 06:35 170 2 gusting 5 6.1
2020-Jan-16 06:30 187 1 gusting 5 6.1
2020-Jan-16 06:25 180 2 gusting 6 6.1
2020-Jan-16 06:15 176 2 gusting 6 6.1
2020-Jan-16 06:10 205 2 gusting 5 6.7
2020-Jan-16 06:05 134 2 gusting 5 6.7
2020-Jan-16 06:00 172 2 gusting 5 6.7
2020-Jan-16 05:55 163 2 gusting 6 6.7
2020-Jan-16 05:50 116 3 gusting 6 6.7
2020-Jan-16 05:45 176 3 gusting 6 7.2
2020-Jan-16 05:40 157 3 gusting 7 7.2
2020-Jan-16 05:35 115 4 gusting 6 7.2
2020-Jan-16 05:30 156 2 gusting 5 7.2
2020-Jan-16 05:25 119 1 gusting 3 7.2
2020-Jan-16 05:20 151 1 gusting 3 7.2
2020-Jan-16 05:15 179 1 gusting 4 7.2
2020-Jan-16 05:10 188 1 gusting 4 7.2
2020-Jan-16 05:05 161 0 gusting 1 7.2
2020-Jan-16 05:00 148 7.2
2020-Jan-16 04:55 110 7.2
2020-Jan-16 04:50 131 1 gusting 2 7.2
2020-Jan-16 04:45 117 0 gusting 2 7.2
2020-Jan-16 04:40 118 0 gusting 5 7.2
2020-Jan-16 04:35 177 0 gusting 5 7.2
2020-Jan-16 04:30 120 1 gusting 4 7.8
2020-Jan-16 04:25 122 1 gusting 4 7.8
2020-Jan-16 04:20 160 0 gusting 3 7.8
2020-Jan-16 04:15 117 0 gusting 3 7.8
2020-Jan-16 04:10 154 1 gusting 3 7.8
2020-Jan-16 04:05 165 0 gusting 1 7.8
2020-Jan-16 04:00 150 7.8
2020-Jan-16 03:55 135 7.2
2020-Jan-16 03:50 159 7.2
2020-Jan-16 03:45 159 7.2
2020-Jan-16 03:40 165 0 gusting 2 7.2
2020-Jan-16 03:35 186 0 gusting 2 7.2
2020-Jan-16 03:30 172 0 gusting 1 7.8
2020-Jan-16 03:25 156 7.8
2020-Jan-16 03:20 158 7.8
2020-Jan-16 03:15 120 7.8
2020-Jan-16 03:10 153 1 gusting 2 7.8
2020-Jan-16 03:05 127 1 gusting 2 7.8
2020-Jan-16 03:00 115 7.8
2020-Jan-16 02:55 142 1 gusting 2 8.3
2020-Jan-16 02:50 119 8.3
2020-Jan-16 02:45 125 1 gusting 3 8.3
2020-Jan-16 02:40 110 8.3
2020-Jan-16 02:35 101 8.3
2020-Jan-16 02:30 101 7.8
2020-Jan-16 02:25 103 7.8
2020-Jan-16 02:20 112 0 gusting 2 7.8
2020-Jan-16 02:15 167 0 gusting 2 8.3
2020-Jan-16 02:10 103 0 gusting 1 8.3
2020-Jan-16 02:05 103 8.3
2020-Jan-16 02:00 134 8.9
2020-Jan-16 01:55 238 8.9
2020-Jan-16 01:50 238 8.9
2020-Jan-16 01:45 238 8.9
2020-Jan-16 01:35 330 9.4
2020-Jan-16 01:30 330 9.4
2020-Jan-16 01:25 330 9.4
2020-Jan-16 01:20 330 9.4
2020-Jan-16 01:15 330 9.4
2020-Jan-16 01:10 330 9.4
2020-Jan-16 01:05 008 9.4
2020-Jan-16 01:00 331 10.0
2020-Jan-16 00:55 330 10.0
2020-Jan-16 00:50 300 10.0
2020-Jan-16 00:45 300 10.0
2020-Jan-16 00:40 300 10.0
2020-Jan-16 00:35 300 10.0
2020-Jan-16 00:30 300 10.0
2020-Jan-16 00:25 300 10.0
2020-Jan-16 00:20 300 10.0
2020-Jan-16 00:15 300 10.0
2020-Jan-16 00:10 300 10.0
2020-Jan-16 00:05 300 10.0
2020-Jan-16 00:00 300 10.0
2020-Jan-15 23:55 300 10.0
2020-Jan-15 23:50 300 10.0
2020-Jan-15 23:45 300 10.0
2020-Jan-15 23:40 187 9.4
2020-Jan-15 23:35 155 9.4
2020-Jan-15 23:30 155 9.4
2020-Jan-15 23:25 124 9.4
2020-Jan-15 23:20 127 9.4
2020-Jan-15 23:15 136 9.4
2020-Jan-15 23:10 136 9.4
2020-Jan-15 23:05 150 9.4
2020-Jan-15 23:00 167 9.4
2020-Jan-15 22:55 116 9.4
2020-Jan-15 22:50 109 9.4
2020-Jan-15 22:40 195 0 gusting 1 9.4
2020-Jan-15 22:35 167 0 gusting 0 9.4
2020-Jan-15 22:30 167 9.4
2020-Jan-15 22:25 134 9.4
2020-Jan-15 22:20 139 9.4
2020-Jan-15 22:15 130 9.4
2020-Jan-15 22:10 130 9.4
2020-Jan-15 22:05 129 9.4
2020-Jan-15 22:00 129 9.4
2020-Jan-15 21:50 129 9.4
2020-Jan-15 21:45 130 10.0
2020-Jan-15 21:40 123 0 gusting 1 10.0
2020-Jan-15 21:35 108 0 gusting 1 10.0
2020-Jan-15 21:30 093 10.0
2020-Jan-15 21:25 134 10.6
2020-Jan-15 21:20 139 10.6
2020-Jan-15 21:10 138 10.6
2020-Jan-15 21:05 139 10.6
2020-Jan-15 21:00 138 10.6
2020-Jan-15 20:55 138 10.6
2020-Jan-15 20:50 135 10.6
2020-Jan-15 20:45 136 10.6
2020-Jan-15 20:40 172 0 gusting 2 10.6
2020-Jan-15 20:35 200 0 gusting 2 10.6
2020-Jan-15 20:30 191 11.1
2020-Jan-15 20:25 154 10.6
2020-Jan-15 20:20 153 10.6
2020-Jan-15 20:15 154 10.6
2020-Jan-15 20:10 246 10.6
2020-Jan-15 20:05 285 10.6
2020-Jan-15 20:00 287 10.6
2020-Jan-15 19:55 287 10.6
2020-Jan-15 19:50 259 10.6
2020-Jan-15 19:45 266 10.6
2020-Jan-15 19:40 266 10.6
2020-Jan-15 19:30 172 1 gusting 4 10.6
2020-Jan-15 19:25 167 1 gusting 4 11.1
2020-Jan-15 19:20 224 0 gusting 2 11.1
2020-Jan-15 19:15 208 11.1
2020-Jan-15 19:10 246 0 gusting 1 11.1
2020-Jan-15 19:05 226 11.1
2020-Jan-15 19:00 210 11.1